Weather Roundup
Issued by NWS Chicago, IL

Home | Current Version | Previous Version | Graphics & Text | Print | Product List | Glossary On
Versions: 1 2 3 4 5 6 7 8 9 10 11 12 13 14 15 16 17 18 19 20 21 22 23 24 25 26 27 28 29 30 31 32 33 34 35 36 37 38 39 40 41 42 43 44 45 46 47 48 49 50
000
NZUS59 KLOT 311308
HRRLOT

CHICAGO AREA WEATHER ROUNDUP
NATIONAL WEATHER SERVICE CHICAGO/ROMEOVILLE IL
800 AM CDT TUE MAY 31 2016

NOTE: "FAIR" INDICATES FEW OR NO CLOUDS BELOW 12,000 FEET WITH NO
SIGNIFICANT WEATHER AND/OR OBSTRUCTIONS TO VISIBILITY.

* THESE STATIONS ARE NOT UNDER NWS QUALITY CONTROL. THEY ALSO MAY NOT
  REPORT WEATHER SUCH AS PRECIPITATION OR FOG.

ILZ005-006-012>014-019>023-311400-
NORTHEAST ILLINOIS

CITY           SKY/WX    TMP DP  RH WIND       PRES   REMARKS
OHARE          PTSUNNY   73  54  51 NE9       30.00S
MIDWAY         PTSUNNY   73  57  57 E9        30.00R
AURORA         PTSUNNY   73  61  65 E5        30.01R
LANSING*       CLOUDY    69  58  67 SE6       30.01R
JOLIET*        CLOUDY    75  60  60 E9        30.00R
WAUKEGAN       MOSUNNY   68  54  60 E9        30.02R
DUPAGE AIRPORT CLOUDY    72  56  57 E9        30.00R
WHEELING       MOSUNNY   70  52  52 E6        30.02R
KANKAKEE*      CLOUDY    71  58  63 SE6       30.01S
MORRIS*        CLOUDY    72  58  60 SE8       29.98S
LEWIS AIRPORT* PTSUNNY   73  56  56 SE6       30.01R
$$

WIZ051-052-058>065-066-070>072-311400-
SOUTHEAST WISCONSIN

CITY           SKY/WX    TMP DP  RH WIND       PRES   REMARKS
MILWAUKEE      MOSUNNY   70  55  59 NE9       30.03S
KENOSHA*       SUNNY     69  55  60 E9        30.03R
RACINE*        MOSUNNY   70  53  54 E8        30.04F
BURLINGTON     SUNNY     69  53  56 E9        30.02S
WAUKESHA       SUNNY     66  55  68 E7        30.03S
WEST BEND      MOSUNNY   64  55  72 NE10      30.04R
$$

INZ001>003-010>013-019-020-311400-
NORTHWEST INDIANA

CITY           SKY/WX    TMP DP  RH WIND       PRES   REMARKS
GARY*          PTSUNNY   72  64  78 E8        30.01S
MICHIGAN CITY* NOT AVBL
RENSSELAER*    NOT AVBL
VALPARAISO     CLOUDY    70  57  63 E8        30.02S
$$

LMZ740>746-311400-
SOUTHERN LAKE MICHIGAN

STATION/POSITION TIME  SKY/WX   TEMP WIND        PRES    VSBY
                                AIR  DIR/SP/G
                 (UTC)          (F)  (DEG/KT/KT) (MB)    (MI)
HARRISON CRIB    1200            66  100/  4/  6   N/A
BURNHAM HARBOR   1300            67   30/  3/  4   N/A
CALUMET HARBOR   1200            64   60/  4/  7 1015.3R
BURNS HARBOR     1200            67   80/  7/  8 1016.6R
MICHIGAN CITY    1200            68   90/  9/ 11   N/A
$$

ABBREVIATIONS USED IN REMARKS
   TC - TEMPERATURE IN CELSIUS
  WCI - WIND CHILL INDEX
   HX - HEAT INDEX
  VSB - VISIBILITY
$$




USA.gov is the U.S. government's official web portal to all federal, state and local government web resources and services.